Location: Bli��� Lhota
(48.7570°N, 14.0120°E)
Time: 05:35:37
(UTC+00:00)

Cosmos 1743 - Pass Details

Date: 18 September 2020
Orbit: 510 x 526 km, 82.6° (Epoch: 29 October)

Event Time Altitude Azimuth Distance (km) Brightness Sun altitude
Rises 17:40:57 0° 198° (SSW) 2,636 6.4 -6.0°
Reaches altitude 10° 17:43:06 10° 202° (SSW) 1,750 5.6 -6.3°
Maximum altitude 17:46:53 57° 282° (WNW) 615 3.5 -6.9°
Drops below altitude 10° 17:50:41 10° 2° (N) 1,756 5.5 -7.5°
Sets 17:52:51 0° 7° (N) 2,645 6.4 -7.9°
